#timestamp,LO_Frequency,Hit,StdDev 
1557154815.5,286047003.3,N
1557154835.3,286047001.5,N
1557154855.2,286047001.6,N
1557154875.9,286046999.7,N
1557154895.7,286047001.7,N
1557154915.6,286046999.9,N
1557154935.4,286047002.1,N
1557154955.2,286047001.5,N
1557154975.1,286047004.3,N
1557154976.0,286047004.3,N
1557154995.8,286047004.4,N
1557155015.2,286047001.8,N
1557155035.0,286047002.2,N
1557155035.9,286047002.2,N
1557155055.8,286047002.0,N
1557155075.6,286047002.7,N
1557155095.4,286047000.6,N
1557155115.3,286047000.4,N
1557155135.1,286047000.0,N
1557155155.9,286047002.5,N
1557155175.7,286047002.5,N
1557155195.5,286047001.6,N
1557155215.4,286047000.1,N
1557155235.2,286046999.7,N
1557155255.0,286047000.8,N
1557155255.9,286047000.8,N
1557155275.8,286046998.6,N
1557155295.6,286046999.0,N
1557155315.5,286046997.1,N
1557155335.3,286046996.6,N
1557155355.1,286046997.5,N
1557155375.9,286046997.4,N
1557155395.7,286046999.5,N
1557155415.5,286046996.9,N
1557155435.4,286046996.8,N
1557155455.2,286046998.5,N
1557155475.0,286046998.7,N
1557155476.0,286046998.7,N
1557155495.8,286047001.2,N
1557155515.6,286046998.6,N
1557155535.5,286046998.5,N
1557155555.3,286046998.6,N
1557155575.1,286046998.4,N
1557155595.9,286046998.3,N
1557155615.7,286046998.7,N
1557155635.5,286046997.4,N
1557155655.4,286046997.8,N
1557155675.2,286046998.0,N
1557155695.1,286046995.4,N
1557155696.0,286046995.4,N
1557155715.8,286046993.4,Y
1557155735.6,286046998.0,P
1557155755.5,286046996.7,P
1557155775.3,286047011.9,P
1557155795.2,286047000.8,N
1557155815.9,286047000.4,N
1557155835.7,286047000.1,N
1557155855.6,286047002.1,N
1557155875.4,286047002.1,N
1557155895.2,286047002.8,N
1557155915.1,286047002.8,N
1557155916.0,286047002.8,N
1557155935.8,286047000.0,N
1557155955.7,286047001.1,N
1557155975.5,286046998.1,N
1557155995.3,286046998.7,N
1557156015.2,286046999.5,N
1557156035.0,286047000.3,N
1557156035.9,286047000.3,N
1557156055.7,286046998.7,N
1557156075.6,286047000.1,N
1557156095.4,286047001.6,N
1557156115.3,286047001.7,N
1557156135.1,286047000.0,N
1557156155.8,286047000.1,N
1557156175.7,286046999.4,N
1557156195.5,286046997.0,N
1557156215.4,286046996.9,N
1557156235.2,286046996.6,N
1557156255.0,286046997.6,N
1557156255.9,286046997.6,N
1557156275.8,286046997.6,N
1557156295.6,286046997.1,N
1557156315.4,286046996.9,N
1557156335.3,286046998.4,N
1557156355.1,286046998.5,N
1557156375.9,286046999.2,N
1557156395.7,286047000.3,N
1557156415.5,286047000.6,N
1557156435.4,286046998.5,N
1557156455.2,286046999.9,N
1557156475.0,286047002.4,N
1557156475.9,286047002.4,N
1557156495.8,286047001.8,N
1557156515.6,286047001.7,N
1557156535.5,286047002.0,N
1557156555.3,286047002.5,N
1557156575.1,286047001.6,N
1557156595.9,286047002.7,N
1557156615.7,286047000.8,N
1557156635.5,286047000.8,N
1557156655.4,286047002.6,N
1557156675.2,286047002.1,N
1557156695.1,286047003.6,N
1557156696.0,286047003.6,N
1557156715.8,286047003.2,N
1557156735.6,286047001.6,N
1557156755.5,286046999.7,N
1557156775.3,286047000.8,N
1557156795.1,286046999.8,N
1557156815.9,286047002.8,N
1557156835.7,286047001.8,N
1557156855.6,286047002.3,N
1557156875.4,286047000.6,N
1557156895.2,286047000.1,N
1557156915.1,286047000.4,N
1557156916.0,286047000.4,N
1557156935.8,286046999.9,N
1557156955.6,286046999.8,N
1557156975.5,286046999.9,N
1557156995.3,286047000.9,N
1557157015.2,286046998.6,N
1557157035.9,286047000.4,N
1557157055.7,286046998.8,N
1557157075.6,286046999.4,N
1557157095.4,286046997.4,N
1557157115.2,286046999.1,N
1557157135.1,286046998.8,N
1557157136.0,286046998.8,N
1557157155.8,286046998.6,N
1557157175.7,286046998.9,N
1557157195.5,286046998.8,N
1557157215.3,286046998.2,N
1557157235.2,286047000.0,N
1557157255.0,286046999.4,N
1557157255.9,286046999.4,N
1557157275.7,286046998.7,N
1557157295.6,286046999.6,N
1557157315.4,286046999.0,N
1557157335.3,286046999.5,N
1557157355.1,286046998.7,N
1557157356.0,286046998.7,N
1557157375.8,286046998.9,N
1557157395.7,286046996.6,Y
1557157415.5,286046999.6,P
1557157435.3,286046996.8,P
1557157455.2,286046999.4,N
1557157475.0,286046999.8,N
1557157475.9,286046999.8,N
1557157495.8,286047004.1,Y
1557157515.6,286047004.0,P
1557157535.4,286047001.3,N
1557157555.3,286047000.0,N
1557157575.1,286046999.8,N
1557157595.8,286047002.7,N
1557157615.7,286047002.5,N
1557157635.3,286046999.8,N
1557157655.1,286047002.8,N
1557157675.9,286047001.2,N
1557157695.7,286046999.8,N
1557157715.5,286047002.6,N
1557157735.4,286047001.5,N
1557157755.2,286047004.3,N
1557157775.0,286047002.6,N
1557157775.9,286047002.6,N
1557157795.8,286047002.6,N
1557157815.6,286047003.9,N
1557157835.5,286047004.3,N
1557157855.3,286047002.1,N
1557157875.1,286046999.9,N
1557157895.9,286047004.0,N
1557157915.7,286047002.7,N
1557157935.6,286047001.9,N
1557157955.4,286047001.8,N
1557157975.2,286047000.5,N
1557157995.1,286047002.2,N
1557157996.0,286047002.2,N
1557158015.8,286047003.1,N
1557158035.6,286047004.1,N
1557158055.5,286047001.8,N
1557158075.3,286047001.8,N
1557158095.2,286047004.3,Y
1557158115.9,286046999.7,P
1557158135.7,286046999.9,N
1557158155.6,286047000.1,N
1557158175.4,286047000.2,N
1557158195.3,286046998.1,N
1557158215.1,286047002.5,N
1557158216.0,286047002.5,N
1557158235.8,286047000.9,N
1557158255.7,286047000.7,N
1557158275.5,286047001.2,N
1557158295.3,286047000.6,N
1557158315.2,286046999.5,N
1557158335.0,286046997.2,N
1557158335.9,286046997.2,N
1557158355.8,286046997.4,N
1557158375.6,286046997.3,N
1557158395.4,286046996.5,N
